User: anonymous   Login
Location: ??????
(55.0357°N, 38.6195°E)
Time: 19:54:18
(UTC+00:00)
Language:

SL-16 R/B - Orbit

View from above orbital plane
View from above orbital plane
View from above satellite
View from above satellite

Ground track
Ground track

The orbit data is extracted from the following two-line orbital elements,

1 27006U 01056F   24166.41365595 -.00000003  00000-0  48245-4 0  9995
2 27006  99.6855 313.5562 0014681 172.0077 248.9394 13.71032070126415
Epoch (UTC): 14 June 2024 09:55:39
Eccentricity: 0.0014681
inclination: 99.6855°
perigee height: 985 km
apogee height: 1006 km
right ascension of ascending node: 313.5562°
argument of perigee: 172.0077°
revolutions per day: 13.71032070
mean anomaly at epoch: 248.9394°
orbit number at epoch: 12641

The dashed part of the orbit path shows where the satellite is in the earth's shadow,  

DLR